Year,Month,Day,Hour,Minute,Value (Times are PST for temperature in C)
2017,09,17,00,00,11.40
2017,09,17,00,01,11.40
2017,09,17,00,02,11.40
2017,09,17,00,03,11.40
2017,09,17,00,04,11.40
2017,09,17,00,05,11.40
2017,09,17,00,06,11.50
2017,09,17,00,07,11.50
2017,09,17,00,08,11.50
2017,09,17,00,09,11.50
2017,09,17,00,10,11.50
2017,09,17,00,11,11.50
2017,09,17,00,12,11.60
2017,09,17,00,13,11.60
2017,09,17,00,14,11.60
2017,09,17,00,15,11.60
2017,09,17,00,16,11.60
2017,09,17,00,17,11.60
2017,09,17,00,18,11.50
2017,09,17,00,19,11.50
2017,09,17,00,20,11.50
2017,09,17,00,21,11.40
2017,09,17,00,22,11.40
2017,09,17,00,23,11.40
2017,09,17,00,24,11.40
2017,09,17,00,25,11.40
2017,09,17,00,26,11.30
2017,09,17,00,27,11.30
2017,09,17,00,28,11.30
2017,09,17,00,29,11.30
2017,09,17,00,30,11.30
2017,09,17,00,31,11.40
2017,09,17,00,32,11.40
2017,09,17,00,33,11.40
2017,09,17,00,34,11.40
2017,09,17,00,35,11.40
2017,09,17,00,36,11.50
2017,09,17,00,37,11.50
2017,09,17,00,38,11.50
2017,09,17,00,39,11.60
2017,09,17,00,40,11.60
2017,09,17,00,41,11.60
2017,09,17,00,42,11.60
2017,09,17,00,43,11.60
2017,09,17,00,44,11.60
2017,09,17,00,45,11.60
2017,09,17,00,46,11.60
2017,09,17,00,47,11.60
2017,09,17,00,48,11.60
2017,09,17,00,49,11.60
2017,09,17,00,50,11.60
2017,09,17,00,51,11.60
2017,09,17,00,52,11.50
2017,09,17,00,53,11.50
2017,09,17,00,54,11.50
2017,09,17,00,55,11.50
2017,09,17,00,56,11.50
2017,09,17,00,57,11.50
2017,09,17,00,58,11.50
2017,09,17,00,59,11.50
2017,09,17,01,00,11.40
2017,09,17,01,01,11.40
2017,09,17,01,02,11.40
2017,09,17,01,03,11.40
2017,09,17,01,04,11.40
2017,09,17,01,05,11.40
2017,09,17,01,06,11.50
2017,09,17,01,07,11.50
2017,09,17,01,08,11.50
2017,09,17,01,09,11.60
2017,09,17,01,10,11.50
2017,09,17,01,11,11.50
2017,09,17,01,12,11.50
2017,09,17,01,13,11.50
2017,09,17,01,14,11.50
2017,09,17,01,15,11.50
2017,09,17,01,16,11.50
2017,09,17,01,17,11.50
2017,09,17,01,18,11.50
2017,09,17,01,19,11.50
2017,09,17,01,20,11.50
2017,09,17,01,21,11.50
2017,09,17,01,22,11.50
2017,09,17,01,23,11.40
2017,09,17,01,24,11.40
2017,09,17,01,25,11.40
2017,09,17,01,26,11.30
2017,09,17,01,27,11.20
2017,09,17,01,28,11.20
2017,09,17,01,29,11.10
2017,09,17,01,30,11.10
2017,09,17,01,31,11.10
2017,09,17,01,32,11.00
2017,09,17,01,33,11.00
2017,09,17,01,34,10.90
2017,09,17,01,35,10.90
2017,09,17,01,36,10.90
2017,09,17,01,37,10.90
2017,09,17,01,38,10.90
2017,09,17,01,39,10.90
2017,09,17,01,40,10.90
2017,09,17,01,41,10.90
2017,09,17,01,42,10.90
2017,09,17,01,43,10.90
2017,09,17,01,44,10.90
2017,09,17,01,45,10.90
2017,09,17,01,46,10.90
2017,09,17,01,47,10.90
2017,09,17,01,48,10.90
2017,09,17,01,49,10.90
2017,09,17,01,50,10.90
2017,09,17,01,51,10.90
2017,09,17,01,52,11.00
2017,09,17,01,53,11.00
2017,09,17,01,54,11.10
2017,09,17,01,55,11.10
2017,09,17,01,56,11.10
2017,09,17,01,57,11.10
2017,09,17,01,58,11.10
2017,09,17,01,59,11.10
2017,09,17,02,00,11.20
2017,09,17,02,01,11.20
2017,09,17,02,02,11.20
2017,09,17,02,03,11.20
2017,09,17,02,04,11.20
2017,09,17,02,05,11.30
2017,09,17,02,06,11.30
2017,09,17,02,07,11.30
2017,09,17,02,08,11.30
2017,09,17,02,09,11.30
2017,09,17,02,10,11.30
2017,09,17,02,11,11.30
2017,09,17,02,12,11.30
2017,09,17,02,13,11.30
2017,09,17,02,14,11.30
2017,09,17,02,15,11.30
2017,09,17,02,16,11.30
2017,09,17,02,17,11.30
2017,09,17,02,18,11.30
2017,09,17,02,19,11.30
2017,09,17,02,20,11.20
2017,09,17,02,21,11.20
2017,09,17,02,22,11.20
2017,09,17,02,23,11.20
2017,09,17,02,24,11.20
2017,09,17,02,25,11.20
2017,09,17,02,26,11.20
2017,09,17,02,27,11.20
2017,09,17,02,28,11.20
2017,09,17,02,29,11.20
2017,09,17,02,30,11.20
2017,09,17,02,31,11.20
2017,09,17,02,32,11.20
2017,09,17,02,33,11.20
2017,09,17,02,34,11.20
2017,09,17,02,35,11.20
2017,09,17,02,36,11.20
2017,09,17,02,37,11.20
2017,09,17,02,38,11.20
2017,09,17,02,39,11.20
2017,09,17,02,40,11.20
2017,09,17,02,41,11.20
2017,09,17,02,42,11.30
2017,09,17,02,43,11.30
2017,09,17,02,44,11.30
2017,09,17,02,45,11.30
2017,09,17,02,46,11.30
2017,09,17,02,47,11.30
2017,09,17,02,48,11.30
2017,09,17,02,49,11.40
2017,09,17,02,50,11.40
2017,09,17,02,51,11.40
2017,09,17,02,52,11.40
2017,09,17,02,53,11.40
2017,09,17,02,54,11.40
2017,09,17,02,55,11.40
2017,09,17,02,56,11.40
2017,09,17,02,57,11.40
2017,09,17,02,58,11.40
2017,09,17,02,59,11.40
2017,09,17,03,00,11.40
2017,09,17,03,01,11.40
2017,09,17,03,02,11.40
2017,09,17,03,03,11.40
2017,09,17,03,06,11.40
2017,09,17,03,07,11.40
2017,09,17,03,08,11.40
2017,09,17,03,09,11.40
2017,09,17,03,10,11.40
2017,09,17,03,11,11.40
2017,09,17,03,12,11.40
2017,09,17,03,13,11.40
2017,09,17,03,14,11.40
2017,09,17,03,15,11.30
2017,09,17,03,16,11.30
2017,09,17,03,17,11.30
2017,09,17,03,18,11.30
2017,09,17,03,19,11.30
2017,09,17,03,20,11.30
2017,09,17,03,21,11.30
2017,09,17,03,22,11.30
2017,09,17,03,23,11.30
2017,09,17,03,24,11.30
2017,09,17,03,25,11.30
2017,09,17,03,26,11.30
2017,09,17,03,27,11.30
2017,09,17,03,28,11.30
2017,09,17,03,29,11.30
2017,09,17,03,30,11.30
2017,09,17,03,31,11.30
2017,09,17,03,32,11.30
2017,09,17,03,33,11.30
2017,09,17,03,34,11.30
2017,09,17,03,35,11.30
2017,09,17,03,36,11.30
2017,09,17,03,37,11.30
2017,09,17,03,38,11.30
2017,09,17,03,39,11.30
2017,09,17,03,40,11.30
2017,09,17,03,41,11.30
2017,09,17,03,42,11.30
2017,09,17,03,43,11.30
2017,09,17,03,44,11.30
2017,09,17,03,45,11.30
2017,09,17,03,46,11.30
2017,09,17,03,47,11.30
2017,09,17,03,48,11.30
2017,09,17,03,49,11.30
2017,09,17,03,50,11.30
2017,09,17,03,51,11.30
2017,09,17,03,52,11.30
2017,09,17,03,53,11.30
2017,09,17,03,54,11.30
2017,09,17,03,55,11.30
2017,09,17,03,56,11.30
2017,09,17,03,57,11.30
2017,09,17,03,58,11.30
2017,09,17,03,59,11.30
2017,09,17,04,00,11.30
2017,09,17,04,01,11.30
2017,09,17,04,02,11.30
2017,09,17,04,03,11.30
2017,09,17,04,04,11.30
2017,09,17,04,05,11.40
2017,09,17,04,06,11.40
2017,09,17,04,07,11.40
2017,09,17,04,08,11.40
2017,09,17,04,09,11.40
2017,09,17,04,10,11.40
2017,09,17,04,11,11.40
2017,09,17,04,12,11.40
2017,09,17,04,13,11.40
2017,09,17,04,14,11.40
2017,09,17,04,15,11.40
2017,09,17,04,16,11.30
2017,09,17,04,17,11.30
2017,09,17,04,18,11.30
2017,09,17,04,19,11.20
2017,09,17,04,20,11.20
2017,09,17,04,21,11.20
2017,09,17,04,22,11.20
2017,09,17,04,23,11.20
2017,09,17,04,24,11.20
2017,09,17,04,25,11.20
2017,09,17,04,26,11.20
2017,09,17,04,27,11.20
2017,09,17,04,28,11.20
2017,09,17,04,29,11.20
2017,09,17,04,30,11.20
2017,09,17,04,31,11.20
2017,09,17,04,32,11.20
2017,09,17,04,33,11.20
2017,09,17,04,34,11.20
2017,09,17,04,35,11.20
2017,09,17,04,36,11.20
2017,09,17,04,37,11.20
2017,09,17,04,38,11.20
2017,09,17,04,39,11.20
2017,09,17,04,40,11.20
2017,09,17,04,41,11.20
2017,09,17,04,42,11.20
2017,09,17,04,43,11.20
2017,09,17,04,44,11.20
2017,09,17,04,45,11.20
2017,09,17,04,46,11.20
2017,09,17,04,47,11.20
2017,09,17,04,48,11.20
2017,09,17,04,49,11.20
2017,09,17,04,50,11.20
2017,09,17,04,51,11.20
2017,09,17,04,52,11.20
2017,09,17,04,53,11.20
2017,09,17,04,54,11.20
2017,09,17,04,55,11.20
2017,09,17,04,56,11.20
2017,09,17,04,57,11.20
2017,09,17,04,58,11.20
2017,09,17,04,59,11.20
2017,09,17,05,00,11.20
2017,09,17,05,01,11.20
2017,09,17,05,02,11.20
2017,09,17,05,03,11.20
2017,09,17,05,04,11.20
2017,09,17,05,05,11.20
2017,09,17,05,06,11.20
2017,09,17,05,07,11.20
2017,09,17,05,08,11.20
2017,09,17,05,09,11.30
2017,09,17,05,10,11.30
2017,09,17,05,11,11.30
2017,09,17,05,12,11.30
2017,09,17,05,13,11.30
2017,09,17,05,14,11.40
2017,09,17,05,15,11.50
2017,09,17,05,16,11.50
2017,09,17,05,17,11.60
2017,09,17,05,18,11.70
2017,09,17,05,19,11.80
2017,09,17,05,20,11.90
2017,09,17,05,21,11.90
2017,09,17,05,22,12.00
2017,09,17,05,23,12.10
2017,09,17,05,24,12.10
2017,09,17,05,25,12.10
2017,09,17,05,26,12.20
2017,09,17,05,27,12.20
2017,09,17,05,28,12.10
2017,09,17,05,29,12.10
2017,09,17,05,30,12.10
2017,09,17,05,31,12.20
2017,09,17,05,32,12.20
2017,09,17,05,33,12.30
2017,09,17,05,34,12.30
2017,09,17,05,35,12.40
2017,09,17,05,36,12.40
2017,09,17,05,37,12.60
2017,09,17,05,38,12.70
2017,09,17,05,39,12.80
2017,09,17,05,40,13.00
2017,09,17,05,41,13.10
2017,09,17,05,42,13.20
2017,09,17,05,43,13.50
2017,09,17,05,44,13.70
2017,09,17,05,45,13.80
2017,09,17,05,46,13.80
2017,09,17,05,47,13.80
2017,09,17,05,48,13.70
2017,09,17,05,49,13.80
2017,09,17,05,50,13.80
2017,09,17,05,51,13.80
2017,09,17,05,52,13.80
2017,09,17,05,53,13.80
2017,09,17,05,54,13.80
2017,09,17,05,55,13.80
2017,09,17,05,56,13.80
2017,09,17,05,57,13.80
2017,09,17,05,58,13.90
2017,09,17,05,59,13.90
2017,09,17,06,00,14.00
2017,09,17,06,01,14.00
2017,09,17,06,02,14.00
2017,09,17,06,03,14.00
2017,09,17,06,04,13.80
2017,09,17,06,05,13.70
2017,09,17,06,06,13.70
2017,09,17,06,07,13.70
2017,09,17,06,08,13.70
2017,09,17,06,09,13.80
2017,09,17,06,10,13.90
2017,09,17,06,11,13.90
2017,09,17,06,12,14.00
2017,09,17,06,13,14.00
2017,09,17,06,14,14.10
2017,09,17,06,15,14.10
2017,09,17,06,16,14.10
2017,09,17,06,17,14.10
2017,09,17,06,18,14.10
2017,09,17,06,19,14.20
2017,09,17,06,20,14.20
2017,09,17,06,21,14.20
2017,09,17,06,22,14.20
2017,09,17,06,23,14.10
2017,09,17,06,24,14.10
2017,09,17,06,25,14.10
2017,09,17,06,26,14.10
2017,09,17,06,27,14.10
2017,09,17,06,28,14.10
2017,09,17,06,29,14.10
2017,09,17,06,30,14.10
2017,09,17,06,31,14.10
2017,09,17,06,32,14.10
2017,09,17,06,33,14.10
2017,09,17,06,34,14.10
2017,09,17,06,35,14.10
2017,09,17,06,36,14.10
2017,09,17,06,37,14.10
2017,09,17,06,38,14.10
2017,09,17,06,39,14.10
2017,09,17,06,40,14.00
2017,09,17,06,41,13.90
2017,09,17,06,42,13.90
2017,09,17,06,43,13.80
2017,09,17,06,44,13.70
2017,09,17,06,45,13.60
2017,09,17,06,46,13.50
2017,09,17,06,47,13.50
2017,09,17,06,48,13.50
2017,09,17,06,49,13.60
2017,09,17,06,50,13.60
2017,09,17,06,51,13.60
2017,09,17,06,52,13.60
2017,09,17,06,53,13.60
2017,09,17,06,54,13.60
2017,09,17,06,55,13.60
2017,09,17,06,56,13.60
2017,09,17,06,57,13.60
2017,09,17,06,58,13.60
2017,09,17,06,59,13.60
2017,09,17,07,00,13.60
2017,09,17,07,01,13.60
2017,09,17,07,02,13.60
2017,09,17,07,03,13.70
2017,09,17,07,04,13.70
2017,09,17,07,05,13.70
2017,09,17,07,06,13.70
2017,09,17,07,07,13.70
2017,09,17,07,08,13.70
2017,09,17,07,09,13.60
2017,09,17,07,10,13.70
2017,09,17,07,11,13.70
2017,09,17,07,12,13.70
2017,09,17,07,13,13.80
2017,09,17,07,14,13.80
2017,09,17,07,15,13.80
2017,09,17,07,16,13.80
2017,09,17,07,17,13.80
2017,09,17,07,18,13.90
2017,09,17,07,19,13.90
2017,09,17,07,20,13.90
2017,09,17,07,21,13.80
2017,09,17,07,22,13.80
2017,09,17,07,23,13.80
2017,09,17,07,24,13.80
2017,09,17,07,25,13.90
2017,09,17,07,26,14.00
2017,09,17,07,27,14.00
2017,09,17,07,28,14.00
2017,09,17,07,29,14.00
2017,09,17,07,30,14.00
2017,09,17,07,31,14.00
2017,09,17,07,32,14.00
2017,09,17,07,33,13.90
2017,09,17,07,34,13.80
2017,09,17,07,35,13.80
2017,09,17,07,36,13.70
2017,09,17,07,37,13.70
2017,09,17,07,38,13.70
2017,09,17,07,39,13.80
2017,09,17,07,40,13.90
2017,09,17,07,41,13.90
2017,09,17,07,42,13.90
2017,09,17,07,43,13.70
2017,09,17,07,44,13.60
2017,09,17,07,45,13.50
2017,09,17,07,46,13.50
2017,09,17,07,47,13.50
2017,09,17,07,48,13.50
2017,09,17,07,49,13.40
2017,09,17,07,50,13.40
2017,09,17,07,51,13.40
2017,09,17,07,52,13.50
2017,09,17,07,53,13.50
2017,09,17,07,54,13.60
2017,09,17,07,55,13.60
2017,09,17,07,56,13.70
2017,09,17,07,57,13.80
2017,09,17,07,58,13.80
2017,09,17,07,59,13.80
2017,09,17,08,00,13.80
2017,09,17,08,01,13.70
2017,09,17,08,02,13.70
2017,09,17,08,03,13.70
2017,09,17,08,04,13.70
2017,09,17,08,05,13.70
2017,09,17,08,06,13.70
2017,09,17,08,07,13.50
2017,09,17,08,08,13.60
2017,09,17,08,09,13.50
2017,09,17,08,10,13.50
2017,09,17,08,11,13.40
2017,09,17,08,12,13.30
2017,09,17,08,13,13.30
2017,09,17,08,14,13.20
2017,09,17,08,15,13.10
2017,09,17,08,16,13.10
2017,09,17,08,17,13.20
2017,09,17,08,18,13.20
2017,09,17,08,19,13.20
2017,09,17,08,20,13.20
2017,09,17,08,21,13.30
2017,09,17,08,22,13.30
2017,09,17,08,23,13.40
2017,09,17,08,24,13.50
2017,09,17,08,25,13.60
2017,09,17,08,26,13.60
2017,09,17,08,27,13.60
2017,09,17,08,28,13.70
2017,09,17,08,29,13.70
2017,09,17,08,30,13.70
2017,09,17,08,31,13.70
2017,09,17,08,32,13.70
2017,09,17,08,33,13.70
2017,09,17,08,34,13.60
2017,09,17,08,35,13.60
2017,09,17,08,36,13.40
2017,09,17,08,37,13.30
2017,09,17,08,38,13.30
2017,09,17,08,39,13.20
2017,09,17,08,40,13.10
2017,09,17,08,41,13.10
2017,09,17,08,42,13.10
2017,09,17,08,43,13.10
2017,09,17,08,44,13.20
2017,09,17,08,45,13.20
2017,09,17,08,46,13.20
2017,09,17,08,47,13.30
2017,09,17,08,48,13.30
2017,09,17,08,49,13.20
2017,09,17,08,50,13.20
2017,09,17,08,51,13.30
2017,09,17,08,52,13.30
2017,09,17,08,53,13.40
2017,09,17,08,54,13.40
2017,09,17,08,55,13.30
2017,09,17,08,56,13.20
2017,09,17,08,57,13.20
2017,09,17,08,58,13.10
2017,09,17,08,59,13.10
2017,09,17,09,00,13.10
2017,09,17,09,01,13.10
2017,09,17,09,02,13.10
2017,09,17,09,03,13.10
2017,09,17,09,04,13.10
2017,09,17,09,05,13.20
2017,09,17,09,06,13.30
2017,09,17,09,07,13.30
2017,09,17,09,08,13.40
2017,09,17,09,09,13.30
2017,09,17,09,10,13.20
2017,09,17,09,11,13.20
2017,09,17,09,12,13.20
2017,09,17,09,13,13.30
2017,09,17,09,14,13.20
2017,09,17,09,15,13.20
2017,09,17,09,16,13.20
2017,09,17,09,17,13.30
2017,09,17,09,18,13.20
2017,09,17,09,19,13.30
2017,09,17,09,20,13.30
2017,09,17,09,21,13.50
2017,09,17,09,22,13.60
2017,09,17,09,23,13.60
2017,09,17,09,24,13.70
2017,09,17,09,25,13.60
2017,09,17,09,26,13.50
2017,09,17,09,27,13.50
2017,09,17,09,28,13.40
2017,09,17,09,29,13.40
2017,09,17,09,30,13.50
2017,09,17,09,31,13.50
2017,09,17,09,32,13.50
2017,09,17,09,33,13.50
2017,09,17,09,34,13.40
2017,09,17,09,35,13.40
2017,09,17,09,36,13.30
2017,09,17,09,37,13.30
2017,09,17,09,38,13.30
2017,09,17,09,39,13.30
2017,09,17,09,40,13.30
2017,09,17,09,41,13.20
2017,09,17,09,42,13.20
2017,09,17,09,43,13.10
2017,09,17,09,44,13.10
2017,09,17,09,45,13.10
2017,09,17,09,46,13.10
2017,09,17,09,47,13.00
2017,09,17,09,48,12.90
2017,09,17,09,49,12.80
2017,09,17,09,50,12.70
2017,09,17,09,51,12.60
2017,09,17,09,52,12.50
2017,09,17,09,53,12.50
2017,09,17,09,54,12.50
2017,09,17,09,55,12.50
2017,09,17,09,56,12.60
2017,09,17,09,57,12.60
2017,09,17,09,58,12.50
2017,09,17,09,59,12.50
2017,09,17,10,00,12.40
2017,09,17,10,01,12.40
2017,09,17,10,02,12.40
2017,09,17,10,03,12.40
2017,09,17,10,04,12.40
2017,09,17,10,05,12.40
2017,09,17,10,06,12.40
2017,09,17,10,07,12.40
2017,09,17,10,08,12.30
2017,09,17,10,09,12.30
2017,09,17,10,10,12.30
2017,09,17,10,11,12.30
2017,09,17,10,12,12.30
2017,09,17,10,13,12.30
2017,09,17,10,14,12.30
2017,09,17,10,15,12.30
2017,09,17,10,16,12.20
2017,09,17,10,17,12.20
2017,09,17,10,18,12.10
2017,09,17,10,19,12.10
2017,09,17,10,20,12.10
2017,09,17,10,21,12.10
2017,09,17,10,22,12.00
2017,09,17,10,23,12.00
2017,09,17,10,24,12.00
2017,09,17,10,25,12.00
2017,09,17,10,26,11.90
2017,09,17,10,27,11.90
2017,09,17,10,28,11.90
2017,09,17,10,29,11.90
2017,09,17,10,30,11.90
2017,09,17,10,31,11.90
2017,09,17,10,32,11.90
2017,09,17,10,33,11.90
2017,09,17,10,34,11.90
2017,09,17,10,35,11.90
2017,09,17,10,36,11.90
2017,09,17,10,37,11.90
2017,09,17,10,38,11.80
2017,09,17,10,39,11.80
2017,09,17,10,40,11.80
2017,09,17,10,41,11.80
2017,09,17,10,42,11.80
2017,09,17,10,43,11.80
2017,09,17,10,44,11.80
2017,09,17,10,45,11.80
2017,09,17,10,46,11.80
2017,09,17,10,47,11.80
2017,09,17,10,48,11.80
2017,09,17,10,49,11.80
2017,09,17,10,50,11.80
2017,09,17,10,51,11.80
2017,09,17,10,52,11.80
2017,09,17,10,53,11.80
2017,09,17,10,54,11.80
2017,09,17,10,55,11.80
2017,09,17,10,56,11.80
2017,09,17,10,57,11.80
2017,09,17,10,58,11.80
2017,09,17,10,59,11.80
2017,09,17,11,00,11.80
2017,09,17,11,01,11.80
2017,09,17,11,02,11.80
2017,09,17,11,03,11.80
2017,09,17,11,04,11.80
2017,09,17,11,05,11.80
2017,09,17,11,06,11.80
2017,09,17,11,07,11.80
2017,09,17,11,08,11.80
2017,09,17,11,09,11.80
2017,09,17,11,10,11.80
2017,09,17,11,11,11.80
2017,09,17,11,12,11.80
2017,09,17,11,13,11.80
2017,09,17,11,14,11.80
2017,09,17,11,15,11.80
2017,09,17,11,16,11.80
2017,09,17,11,17,11.80
2017,09,17,11,18,11.80
2017,09,17,11,19,11.80
2017,09,17,11,20,11.80
2017,09,17,11,21,11.80
2017,09,17,11,22,11.80
2017,09,17,11,23,11.80
2017,09,17,11,24,11.80
2017,09,17,11,25,11.80
2017,09,17,11,26,11.80
2017,09,17,11,27,11.80
2017,09,17,11,28,11.80
2017,09,17,11,29,11.80
2017,09,17,11,30,11.80
2017,09,17,11,31,11.80
2017,09,17,11,32,11.90
2017,09,17,11,33,11.80
2017,09,17,11,34,11.80
2017,09,17,11,35,11.80
2017,09,17,11,36,11.80
2017,09,17,11,37,11.80
2017,09,17,11,38,11.90
2017,09,17,11,39,11.90
2017,09,17,11,40,11.90
2017,09,17,11,41,11.90
2017,09,17,11,42,11.90
2017,09,17,11,43,11.80
2017,09,17,11,44,11.80
2017,09,17,11,45,11.80
2017,09,17,11,46,11.80
2017,09,17,11,47,11.80
2017,09,17,11,48,11.80
2017,09,17,11,49,11.80
2017,09,17,11,50,11.80
2017,09,17,11,51,11.80
2017,09,17,11,52,11.80
2017,09,17,11,53,11.80
2017,09,17,11,54,11.80
2017,09,17,11,55,11.80
2017,09,17,11,56,11.90
2017,09,17,11,57,11.90
2017,09,17,11,58,11.90
2017,09,17,11,59,11.90
2017,09,17,12,00,11.90
2017,09,17,12,01,11.90
2017,09,17,12,02,11.90
2017,09,17,12,03,11.90
2017,09,17,12,04,11.90
2017,09,17,12,05,11.90
2017,09,17,12,06,11.90
2017,09,17,12,07,12.00
2017,09,17,12,08,12.00
2017,09,17,12,09,12.00
2017,09,17,12,10,12.00
2017,09,17,12,11,12.00
2017,09,17,12,12,12.10
2017,09,17,12,13,12.10
2017,09,17,12,14,12.10
2017,09,17,12,15,12.10
2017,09,17,12,16,12.20
2017,09,17,12,17,12.20
2017,09,17,12,18,12.30
2017,09,17,12,19,12.30
2017,09,17,12,20,12.30
2017,09,17,12,21,12.30
2017,09,17,12,22,12.30
2017,09,17,12,23,12.30
2017,09,17,12,24,12.30
2017,09,17,12,25,12.30
2017,09,17,12,26,12.30
2017,09,17,12,27,12.30
2017,09,17,12,28,12.30
2017,09,17,12,29,12.30
2017,09,17,12,30,12.30
2017,09,17,12,31,12.40
2017,09,17,12,32,12.40
2017,09,17,12,33,12.50
2017,09,17,12,34,12.50
2017,09,17,12,35,12.60
2017,09,17,12,36,12.60
2017,09,17,12,37,12.60
2017,09,17,12,38,12.60
2017,09,17,12,39,12.60
2017,09,17,12,40,12.50
2017,09,17,12,41,12.50
2017,09,17,12,42,12.50
2017,09,17,12,43,12.50
2017,09,17,12,44,12.50
2017,09,17,12,45,12.50
2017,09,17,12,46,12.50
2017,09,17,12,47,12.50
2017,09,17,12,48,12.40
2017,09,17,12,49,12.40
2017,09,17,12,50,12.40
2017,09,17,12,51,12.40
2017,09,17,12,52,12.40
2017,09,17,12,53,12.40
2017,09,17,12,54,12.40
2017,09,17,12,55,12.40
2017,09,17,12,56,12.50
2017,09,17,12,57,12.50
2017,09,17,12,58,12.50
2017,09,17,12,59,12.50
2017,09,17,13,00,12.50
2017,09,17,13,01,12.50
2017,09,17,13,02,12.50
2017,09,17,13,03,12.50
2017,09,17,13,04,12.50
2017,09,17,13,05,12.60
2017,09,17,13,06,12.60
2017,09,17,13,07,12.60
2017,09,17,13,08,12.60
2017,09,17,13,09,12.60
2017,09,17,13,10,12.70
2017,09,17,13,11,12.80
2017,09,17,13,12,12.90
2017,09,17,13,13,13.00
2017,09,17,13,14,13.00
2017,09,17,13,15,13.10
2017,09,17,13,16,13.10
2017,09,17,13,17,13.20
2017,09,17,13,18,13.20
2017,09,17,13,19,13.30
2017,09,17,13,20,13.30
2017,09,17,13,21,13.30
2017,09,17,13,22,13.30
2017,09,17,13,23,13.30
2017,09,17,13,24,13.30
2017,09,17,13,25,13.30
2017,09,17,13,26,13.30
2017,09,17,13,27,13.30
2017,09,17,13,28,13.30
2017,09,17,13,29,13.30
2017,09,17,13,30,13.20
2017,09,17,13,31,13.20
2017,09,17,13,32,13.20
2017,09,17,13,33,13.20
2017,09,17,13,34,13.30
2017,09,17,13,35,13.30
2017,09,17,13,36,13.30
2017,09,17,13,37,13.30
2017,09,17,13,38,13.40
2017,09,17,13,39,13.40
2017,09,17,13,40,13.40
2017,09,17,13,41,13.40
2017,09,17,13,42,13.40
2017,09,17,13,43,13.30
2017,09,17,13,44,13.30
2017,09,17,13,45,13.30
2017,09,17,13,46,13.30
2017,09,17,13,47,13.30
2017,09,17,13,48,13.40
2017,09,17,13,49,13.40
2017,09,17,13,50,13.40
2017,09,17,13,51,13.40
2017,09,17,13,52,13.40
2017,09,17,13,53,13.40
2017,09,17,13,54,13.40
2017,09,17,13,55,13.40
2017,09,17,13,56,13.40
2017,09,17,13,57,13.40
2017,09,17,13,58,13.30
2017,09,17,13,59,13.30
2017,09,17,14,00,13.30
2017,09,17,14,01,13.30
2017,09,17,14,02,13.30
2017,09,17,14,03,13.30
2017,09,17,14,04,13.30
2017,09,17,14,05,13.30
2017,09,17,14,06,13.30
2017,09,17,14,07,13.30
2017,09,17,14,08,13.30
2017,09,17,14,09,13.30
2017,09,17,14,10,13.30
2017,09,17,14,11,13.30
2017,09,17,14,12,13.30
2017,09,17,14,13,13.30
2017,09,17,14,14,13.30
2017,09,17,14,15,13.30
2017,09,17,14,16,13.40
2017,09,17,14,17,13.40
2017,09,17,14,18,13.40
2017,09,17,14,19,13.40
2017,09,17,14,20,13.40
2017,09,17,14,21,13.40
2017,09,17,14,22,13.50
2017,09,17,14,23,13.50
2017,09,17,14,24,13.50
2017,09,17,14,25,13.50
2017,09,17,14,26,13.50
2017,09,17,14,27,13.60
2017,09,17,14,28,13.50
2017,09,17,14,29,13.40
2017,09,17,14,30,13.30
2017,09,17,14,31,13.30
2017,09,17,14,32,13.20
2017,09,17,14,33,13.20
2017,09,17,14,34,13.20
2017,09,17,14,35,13.30
2017,09,17,14,36,13.30
2017,09,17,14,37,13.30
2017,09,17,14,38,13.30
2017,09,17,14,39,13.30
2017,09,17,14,40,13.30
2017,09,17,14,41,13.30
2017,09,17,14,42,13.30
2017,09,17,14,43,13.30
2017,09,17,14,44,13.30
2017,09,17,14,45,13.30
2017,09,17,14,46,13.30
2017,09,17,14,47,13.40
2017,09,17,14,48,13.50
2017,09,17,14,49,13.50
2017,09,17,14,50,13.60
2017,09,17,14,51,13.60
2017,09,17,14,52,13.70
2017,09,17,14,53,13.80
2017,09,17,14,54,13.80
2017,09,17,14,55,13.80
2017,09,17,14,56,13.80
2017,09,17,14,57,13.80
2017,09,17,14,58,13.90
2017,09,17,14,59,13.90
2017,09,17,15,00,13.90
2017,09,17,15,01,13.90
2017,09,17,15,02,14.00
2017,09,17,15,03,14.00
2017,09,17,15,04,14.00
2017,09,17,15,05,14.00
2017,09,17,15,06,14.10
2017,09,17,15,07,14.10
2017,09,17,15,08,14.10
2017,09,17,15,09,14.10
2017,09,17,15,10,14.10
2017,09,17,15,11,14.10
2017,09,17,15,12,14.10
2017,09,17,15,13,14.10
2017,09,17,15,14,14.10
2017,09,17,15,15,14.10
2017,09,17,15,16,14.00
2017,09,17,15,17,14.00
2017,09,17,15,18,13.90
2017,09,17,15,19,13.60
2017,09,17,15,20,13.50
2017,09,17,15,21,13.40
2017,09,17,15,22,13.50
2017,09,17,15,23,13.50
2017,09,17,15,24,13.50
2017,09,17,15,25,13.40
2017,09,17,15,26,13.30
2017,09,17,15,27,13.20
2017,09,17,15,28,13.10
2017,09,17,15,29,13.10
2017,09,17,15,30,13.10
2017,09,17,15,31,13.00
2017,09,17,15,32,12.90
2017,09,17,15,33,12.80
2017,09,17,15,34,12.80
2017,09,17,15,35,12.80
2017,09,17,15,36,12.90
2017,09,17,15,37,12.90
2017,09,17,15,38,12.80
2017,09,17,15,39,12.80
2017,09,17,15,40,12.70
2017,09,17,15,41,12.70
2017,09,17,15,42,12.60
2017,09,17,15,43,12.50
2017,09,17,15,44,12.40
2017,09,17,15,45,12.40
2017,09,17,15,46,12.30
2017,09,17,15,47,12.30
2017,09,17,15,48,12.30
2017,09,17,15,49,12.20
2017,09,17,15,50,12.20
2017,09,17,15,51,12.20
2017,09,17,15,52,12.20
2017,09,17,15,53,12.10
2017,09,17,15,54,12.10
2017,09,17,15,55,12.10
2017,09,17,15,56,12.00
2017,09,17,15,57,12.00
2017,09,17,15,58,12.00
2017,09,17,15,59,11.90
2017,09,17,16,00,12.00
2017,09,17,16,01,12.00
2017,09,17,16,02,12.00
2017,09,17,16,03,12.00
2017,09,17,16,04,12.00
2017,09,17,16,05,11.90
2017,09,17,16,06,11.90
2017,09,17,16,07,11.80
2017,09,17,16,08,11.80
2017,09,17,16,09,11.80
2017,09,17,16,10,11.70
2017,09,17,16,11,11.70
2017,09,17,16,12,11.60
2017,09,17,16,13,11.60
2017,09,17,16,14,11.50
2017,09,17,16,15,11.40
2017,09,17,16,16,11.40
2017,09,17,16,17,11.40
2017,09,17,16,18,11.30
2017,09,17,16,19,11.30
2017,09,17,16,20,11.30
2017,09,17,16,21,11.30
2017,09,17,16,22,11.30
2017,09,17,16,23,11.30
2017,09,17,16,24,11.30
2017,09,17,16,25,11.30
2017,09,17,16,26,11.30
2017,09,17,16,27,11.30
2017,09,17,16,28,11.30
2017,09,17,16,29,11.30
2017,09,17,16,30,11.30
2017,09,17,16,31,11.30
2017,09,17,16,32,11.20
2017,09,17,16,33,11.20
2017,09,17,16,34,11.20
2017,09,17,16,35,11.20
2017,09,17,16,36,11.20
2017,09,17,16,37,11.20
2017,09,17,16,38,11.20
2017,09,17,16,39,11.30
2017,09,17,16,40,11.30
2017,09,17,16,41,11.30
2017,09,17,16,42,11.30
2017,09,17,16,43,11.30
2017,09,17,16,44,11.40
2017,09,17,16,45,11.40
2017,09,17,16,46,11.40
2017,09,17,16,47,11.40
2017,09,17,16,48,11.50
2017,09,17,16,49,11.50
2017,09,17,16,50,11.60
2017,09,17,16,51,11.60
2017,09,17,16,52,11.60
2017,09,17,16,53,11.60
2017,09,17,16,54,11.60
2017,09,17,16,55,11.60
2017,09,17,16,56,11.60
2017,09,17,16,57,11.60
2017,09,17,16,58,11.60
2017,09,17,16,59,11.70
2017,09,17,17,00,11.70
2017,09,17,17,01,11.70
2017,09,17,17,02,11.70
2017,09,17,17,03,11.70
2017,09,17,17,04,11.70
2017,09,17,17,05,11.70
2017,09,17,17,06,11.70
2017,09,17,17,07,11.70
2017,09,17,17,08,11.70
2017,09,17,17,09,11.70
2017,09,17,17,10,11.80
2017,09,17,17,11,11.80
2017,09,17,17,12,11.80
2017,09,17,17,13,11.80
2017,09,17,17,14,11.90
2017,09,17,17,15,11.90
2017,09,17,17,16,11.90
2017,09,17,17,17,11.80
2017,09,17,17,18,11.90
2017,09,17,17,19,11.90
2017,09,17,17,20,12.00
2017,09,17,17,21,12.10